Regional Weather Roundup
Issued by NWS

Home | Current Version | Previous Version | Text Only | Print | Product List | Glossary Off
Versions: 1 2 3 4 5 6 7 8 9 10 11 12 13 14 15 16 17 18 19 20 21 22 23 24 25 26 27 28 29 30 31 32 33 34 35 36 37 38 39 40 41 42 43 44 45 46 47 48 49 50

789
ASUS43 KLMK 180310
RWRKY
KENTUCKY REGIONAL WEATHER ROUNDUP
NATIONAL WEATHER SERVICE LOUISVILLE KY
1100 PM EDT THU AUG 17 2017

NOTE "FAIR" INDICATES FEW OR NO CLOUDS BELOW 12,000 FEET
WITH NO SIGNIFICANT WEATHER AND/OR OBSTRUCTIONS TO VISIBILITY.

KYZ001>023-026-027-061>063-070>075-180400-
WESTERN AND SOUTH CENTRAL KENTUCKY

CITY           SKY/WX    TMP DP  RH WIND       PRES   REMARKS
PADUCAH        MOCLDY    77  71  82 SW6       29.91R
HENDERSON      MOCLDY    75  71  87 SW5       29.90R
OWENSBORO      PTCLDY    75  73  93 S5        29.89S
HOPKINSVILLE   PTCLDY    77  75  95 SW7       29.92R
BOWLING GREEN  LGT RAIN  77  76  96 SW8       29.92S FOG
GLASGOW        CLOUDY    76  75  96 SW3       29.93S
$$

KYZ024-025-028>034-038-045-046-053-180400-
NORTH CENTRAL KENTUCKY

CITY           SKY/WX    TMP DP  RH WIND       PRES   REMARKS
LOUISVILLE/SDF CLOUDY    77  74  90 S10       29.89R
LOUISVILLE/LOU CLOUDY    75  75 100 S7        29.90R
FORT KNOX      PTCLDY    75  73  95 S6        29.89S
$$

KYZ035>037-039>044-047>052-055>060-089>105-180400-
NORTHEAST KENTUCKY

CITY           SKY/WX    TMP DP  RH WIND       PRES   REMARKS
LEXINGTON      PTCLDY    74  71  91 S8        29.93F
COVINGTON      PTCLDY    73  73 100 SW5       29.89S
FRANKFORT      PTCLDY    74  71  91 SW6       29.91S
$$

KYZ054-064>069-076>088-106>120-180400-
SOUTHEAST KENTUCKY

CITY           SKY/WX    TMP DP  RH WIND       PRES   REMARKS
JACKSON        CLEAR     78  72  81 SW3       29.97S
LONDON         CLEAR     77  70  79 S3        29.98S
SOMERSET       PTCLDY    77  70  78 S3        29.97F
MIDDLESBORO    CLEAR     75  74  99 CALM      30.00S
MONTICELLO     PTCLDY    77  72  84 W12       29.97F
$$





USA.gov is the U.S. government's official web portal to all federal, state and local government web resources and services.